Read MPEC 2001-M13
Read MPEC 2001-M15
M.P.E.C. 2001-M14 Issued 2001 June 19, 23:08 UT
The Minor Planet Electronic Circulars contain information on unusual
minor planets and routine data on comets. They are published
on behalf of Commission 20 of the International Astronomical Union by the
Minor Planet Center, Smithsonian Astrophysical Observatory,
Cambridge, MA 02138, U.S.A.
Prepared using the Tamkin Foundation Computer Network
MPC@CFA.HARVARD.EDU
URL http://cfa-www.harvard.edu/iau/mpc.html ISSN 1523-6714
2001 LE6
Observations:
K01L06E* C2001 06 15.34605 20 26 07.57 -29 32 25.4 18.0 644
K01L06E C2001 06 15.35689 20 26 04.18 -29 32 27.6 17.8 644
K01L06E C2001 06 15.36760 20 26 00.83 -29 32 29.4 17.8 644
K01L06E C2001 06 15.76749 20 23 56.764-29 33 12.25 17.9 R 422
K01L06E C2001 06 15.76836 20 23 56.536-29 33 12.23 18.0 R 422
K01L06E C2001 06 15.76914 20 23 56.282-29 33 12.49 17.9 R 422
K01L06E C2001 06 16.07821 20 22 21.79 -29 34 12.2 17.8 R 620
K01L06E C2001 06 16.11005 20 22 11.84 -29 34 15.7 620
K01L06E C2001 06 16.11347 20 22 10.80 -29 34 16.8 620
K01L06E C2001 06 16.64983 20 19 25.36 -29 34 59.1 18.5 R 428
K01L06E C2001 06 16.65325 20 19 24.02 -29 34 59.3 18.6 R 428
K01L06E C2001 06 16.65746 20 19 23.01 -29 34 59.3 18.7 R 428
K01L06E FC2001 06 17.17407 20 16 43.14 -29 35 46.9 17.5 R 860
K01L06E C2001 06 17.17625 20 16 42.67 -29 35 47.0 17.3 R 860
K01L06E FC2001 06 17.17843 20 16 41.73 -29 35 45.8 860
K01L06E C2001 06 17.30750 20 16 00.98 -29 35 57.5 18.8 R 859
K01L06E C2001 06 17.30914 20 16 00.35 -29 35 58.4 19.2 R 859
K01L06E C2001 06 17.32926 20 15 55.51 -29 36 13.8 18.1 644
K01L06E C2001 06 17.34089 20 15 51.85 -29 36 15.4 18.0 644
K01L06E C2001 06 17.35136 20 15 48.53 -29 36 16.2 18.1 644
K01L06E C2001 06 18.33038 20 10 44.99 -29 36 57.4 17.6 644
K01L06E C2001 06 18.34251 20 10 41.16 -29 36 57.5 17.6 644
K01L06E C2001 06 18.35384 20 10 37.55 -29 36 58.1 17.5 644
K01L06E C2001 06 18.73188 20 08 39.384-29 36 45.90 17.8 R 422
K01L06E C2001 06 18.73292 20 08 39.022-29 36 46.10 17.9 R 422
K01L06E C2001 06 19.07898 20 06 52.30 -29 37 02.3 18.5 V 493
K01L06E C2001 06 19.08028 20 06 51.88 -29 37 02.0 493
K01L06E C2001 06 19.31855 20 05 38.42 -29 36 55.9 17.6 644
K01L06E C2001 06 19.32927 20 05 35.03 -29 36 55.9 17.6 644
K01L06E C2001 06 19.33155 20 05 33.92 -29 36 58.0 16.1 R 649
K01L06E C2001 06 19.33164 20 05 34.27 -29 36 55.1 919
K01L06E C2001 06 19.33383 20 05 33.57 -29 36 56.1 919
K01L06E C2001 06 19.33677 20 05 32.72 -29 36 55.6 919
K01L06E C2001 06 19.33758 20 05 32.05 -29 36 58.9 16.3 R 649
K01L06E C2001 06 19.34122 20 05 31.26 -29 36 56.2 18.1 644
K01L06E C2001 06 19.34151 20 05 30.68 -29 36 56.5 15.9 R 649
K01L06E C2001 06 19.35068 20 05 27.83 -29 36 57.9 15.8 R 649
Observer details:
422 Loomberah. Observer G. J. Garradd. 0.45-m f/5.4 reflector + CCD.
428 Reedy Creek. Observer J. Broughton. 0.25-m f/6.3 Schmidt-Cassegrain
+ CCD.
493 Calar Alto. Observers DANEOPS Team (M. Busch, A. Seib, F. Hormuth).
Measurers R. Stoss, A. Gnadig, A. Doppler. 1.52-m reflector + CCD.
620 Observatorio Astronomico de Mallorca. Observers S. Sanchez, J. Nomen.
0.30-m f/3.3 Schmidt-Cassegrain + CCD.
644 Palomar Mountain/NEAT. Observers E. F. Helin, S. Pravdo, K. Lawrence,
M. Hicks, E. Hovland, T. Bickler, J. Schroeder, L. Scherr, R. Thicksten,
A. Deetz. 1.2-m Schmidt + CCD.
649 Powell Observatory, Louisburg. Observers K. Smalley, D. Trentman.
Measurer K. Smalley. 0.75-m Newtonian + CCD.
859 Wykrota Observatory-CEAMIG. Observers C. Jacques, J. Amancio, G. Nappi.
0.3-m f/3.3 Schmidt-Cassegrain + CCD.
860 Valinhos. Observers P. R. Holvorcem, M. Fidencio Neto. 0.36-m f/3.6
Schmidt-Cassegrain + CCD.
919 Desert Beaver Observatory. Observer K. W. Yeung. 0.45-m reflector + CCD.
Orbital elements:
2001 LE6
Epoch 2001 May 31.0 TT = JDT 2452060.5 Spahr
M 54.06686 (2000.0) P Q
n 0.74156896 Peri. 201.52691 -0.66391129 -0.71953699
a 1.2088387 Node 290.70613 +0.71395888 -0.52886714
e 0.6925536 Incl. 12.57705 +0.22245115 -0.45007340
P 1.33 H 17.3 G 0.15
From 37 observations 2001 June 15-19.
Ephemeris:
2001 LE6 a,e,i = 1.21, 0.69, 13 q = 0.3717
Date TT R. A. (2000) Decl. Delta r Elong. Phase V
2001 06 10 20 52.81 -29 08.2 0.461 1.361 130.7 34.4 17.7
2001 06 20 20 02.11 -29 36.2 0.477 1.452 150.9 19.9 17.5
2001 06 30 19 12.96 -28 50.0 0.523 1.534 170.0 6.6 17.3
2001 07 10 18 33.57 -27 14.5 0.600 1.609 168.9 7.0 17.7
2001 07 20 18 06.56 -25 30.2 0.704 1.677 154.1 15.4 18.5
2001 07 30 17 50.50 -24 01.4 0.829 1.739 140.9 21.6 19.1
2001 08 09 17 42.81 -22 54.1 0.969 1.794 129.6 25.8 19.7
2001 08 19 17 41.19 -22 05.8 1.120 1.843 119.6 28.5 20.1
2001 08 29 17 44.01 -21 31.7 1.278 1.887 110.6 30.1 20.5
2001 09 08 17 50.11 -21 06.8 1.440 1.925 102.3 30.8 20.8
2001 09 18 17 58.66 -20 47.1 1.602 1.957 94.5 30.8 21.1
2001 09 28 18 09.13 -20 29.5 1.763 1.985 87.2 30.3 21.3
2001 10 08 18 21.08 -20 11.5 1.919 2.007 80.2 29.4 21.5
Timothy B. Spahr (C) Copyright 2001 MPC M.P.E.C. 2001-M14
Read MPEC 2001-M13
Read MPEC 2001-M15
Our Web policy. Index to the CBAT/MPC/ICQ pages.